Location: Foligno
(42.9600°N, 12.7050°E)
Time: 11:27:02
(UTC+02:00)

ISS - Pass Details

Date: 12 May 2021
Orbit: 417 x 422 km, 51.6° (Epoch: 15 May)

Event Time Altitude Azimuth Distance (km) Brightness Sun altitude
Exits shadow 01:18:16 15° 31° (NNE) 1,223 -0.8 -28.8°
Drops below altitude 10° 01:19:10 10° 42° (NE) 1,504 -0.3 -28.8°
Sets 01:21:30 0° 56° (NE) 2,371 0.6 -28.8°
